Terrell, TX

10:34 PM CDT on April 21, 2018 (GMT -0500)
Terrell Municipal

Weather History for KTRL - February, 2013

Change the Weather History Date:

Wednesday, February 13, 2013

  Actual Average (KGVT) Record (KGVT)
Temperature  
Mean Temperature 46 °F -  
Max Temperature 54 °F 57 °F 73 °F (2005)
Min Temperature 39 °F 43 °F 23 °F (2006)
Degree Days  
Heating Degree Days 18    
Moisture  
Dew Point 35 °F    
Average Humidity 73    
Maximum Humidity 87    
Minimum Humidity 45    
Precipitation  
Precipitation 0.00 in - - ()
Sea Level Pressure  
Sea Level Pressure 30.08 in    
Wind  
Wind Speed 10 mph (NW)    
Max Wind Speed 17 mph    
Max Gust Speed 24 mph    
Visibility 10 miles    
Events      
Averages and records for this station are not official NWS values.
T = Trace of Precipitation, MM = Missing Value Source: NWS Daily Summary

Daily Weather History Graph

Daily Weather History Graph

Search for Another Location

Airport or City:

Astronomy

Feb. 13, 2013 Rise Set
Actual Time 7:09 AM CST 6:09 PM CST
Civil Twilight 6:44 AM CST 6:34 PM CST
Nautical Twilight 6:15 AM CST 7:03 PM CST
Astronomical Twilight 5:46 AM CST 7:32 PM CST
Moon 8:55 AM CST (2/13) 9:55 PM CST (2/13)
Length of Visible Light 11h 49m
Length of Day
10h 59m
Waxing Crescent, 14% of the Moon is Illuminated
Feb 13
Waxing Crescent
Feb 17
First Quarter
Feb 25
Full
Mar 4
Last Quarter
Mar 11
New

Hourly Weather History & Observations

Time (CST) Temp. Windchill Dew Point Humidity Pressure Visibility Wind Dir Wind Speed Gust Speed Precip Events Conditions
12:53 AM 44.1 °F 37.4 °F 37.9 °F 79% 30.03 in 10.0 mi NW 13.8 mph 23.0 mph N/A   Overcast
1:00 AM 42.8 °F 34.8 °F 37.4 °F 81% 30.03 in 10.0 mi NW 17.3 mph 24.2 mph N/A   Overcast
1:33 AM 42.8 °F 34.8 °F 35.6 °F 76% 30.04 in 10.0 mi NW 17.3 mph 24.2 mph N/A   Overcast
1:53 AM 42.1 °F 35.2 °F 36.0 °F 79% 30.05 in 10.0 mi NW 12.7 mph - N/A   Overcast
2:06 AM 41.0 °F 33.1 °F 35.6 °F 81% 30.05 in 10.0 mi NW 15.0 mph 20.7 mph N/A   Overcast
2:26 AM 41.0 °F 33.5 °F 35.6 °F 81% 30.05 in 10.0 mi NW 13.8 mph 18.4 mph N/A   Mostly Cloudy
2:53 AM 41.0 °F 34.3 °F 35.1 °F 79% 30.06 in 10.0 mi NNW 11.5 mph 20.7 mph N/A   Overcast
3:53 AM 41.0 °F 33.5 °F 35.1 °F 79% 30.06 in 10.0 mi NW 13.8 mph - N/A   Overcast
4:53 AM 41.0 °F 34.3 °F 35.1 °F 79% 30.08 in 10.0 mi NW 11.5 mph - N/A   Overcast
5:30 AM 39.2 °F 32.5 °F 35.6 °F 87% 30.09 in 10.0 mi NNW 10.4 mph - N/A   Overcast
5:53 AM 39.9 °F 35.1 °F 35.1 °F 83% 30.10 in 10.0 mi NW 6.9 mph - N/A   Overcast
6:53 AM 39.9 °F 35.1 °F 35.1 °F 83% 30.11 in 9.0 mi NNW 6.9 mph - N/A   Overcast
7:43 AM 41.0 °F 35.8 °F 33.8 °F 76% 30.12 in 9.0 mi NNW 8.1 mph - N/A   Overcast
7:53 AM 41.0 °F 34.7 °F 34.0 °F 76% 30.12 in 9.0 mi NW 10.4 mph - N/A   Overcast
8:53 AM 41.0 °F 37.1 °F 35.1 °F 79% 30.15 in 10.0 mi NNW 5.8 mph - N/A   Overcast
9:53 AM 43.0 °F 39.5 °F 35.1 °F 74% 30.16 in 10.0 mi NNW 5.8 mph - N/A   Overcast
10:53 AM 43.0 °F 37.7 °F 35.1 °F 74% 30.18 in 10.0 mi NW 9.2 mph - N/A   Overcast
11:53 AM 44.1 °F 41.5 °F 35.1 °F 71% 30.17 in 10.0 mi West 4.6 mph - N/A   Overcast
12:53 PM 46.9 °F - 37.0 °F 68% 30.13 in 10.0 mi Calm Calm - N/A   Overcast
1:36 PM 48.2 °F - 35.6 °F 62% 30.10 in 10.0 mi Calm Calm - N/A   Scattered Clouds
1:53 PM 50.0 °F - 37.0 °F 61% 30.09 in 10.0 mi Variable 5.8 mph - N/A   Clear
2:53 PM 53.1 °F - 36.0 °F 52% 30.07 in 10.0 mi NNE 3.5 mph - N/A   Clear
3:53 PM 54.0 °F - 35.1 °F 49% 30.06 in 10.0 mi NNW 4.6 mph - N/A   Clear
4:53 PM 54.0 °F - 33.1 °F 45% 30.05 in 10.0 mi West 3.5 mph - N/A   Clear
5:53 PM 52.0 °F - 33.1 °F 49% 30.05 in 10.0 mi Calm Calm - N/A   Clear
6:53 PM 46.9 °F - 35.1 °F 63% 30.05 in 10.0 mi South 4.6 mph - N/A   Clear
7:53 PM 45.0 °F 41.8 °F 36.0 °F 71% 30.06 in 10.0 mi South 5.8 mph - N/A   Clear
8:53 PM 44.1 °F 40.8 °F 37.0 °F 76% 30.06 in 9.0 mi South 5.8 mph - N/A   Clear
9:53 PM 42.1 °F 40.2 °F 36.0 °F 79% 30.07 in 9.0 mi South 3.5 mph - N/A   Clear
10:53 PM 41.0 °F 39.0 °F 36.0 °F 82% 30.08 in 9.0 mi South 3.5 mph - N/A   Clear
11:53 PM 39.9 °F 36.7 °F 36.0 °F 86% 30.08 in 10.0 mi SSW 4.6 mph - N/A   Clear